SCP
-0 0 0 -0 -0 -0 -0 -0 -0 -0 -0 -0 0 0 0 0 0 -0 -0 0 0 0 0 0 0 0 0 0 0 0 0 0 0 0 0 0 0 0 0 0 0 0 0
0 0 -0 -0 -0 -0 -0 -0 -0 0 0 -0 0 -0 -0 0 0 0 0 -0 0 0 0 0 0 0 0 0 0 0 0 0 0 0 0 0 0 0 0 0 0 0 0
0 0 0 0 -0 -0 -0 -0 -0 -0 0 0 0 0 -0 0 0 0 0 0 0 0 0 0 0 0 0 0 0 0 0 -0 -0 0 0 0 0 0 0 0 0 0 0
0 0 0 0 0 0 -0 0 0 0 -0 -0 -0 -0 -0 -0 -0 -0 -0 -0 0 0 0 0 0 0 0 0 0 0 0 0 0 0 0 0 0 0 0 0 0 0 0
0 0 -0 -0 -0 -0 -0 -0 -0 -0 -0 -0 -0 -0 -0 -0 -0 -0 -0 -0 -0 0 -0 0 0 0 0 0 0 0 0 0 0 0 0 0 0 0 0 0 0 0 0
0 -0 -0 -0 -0 -0 -0 -0 0 -0 -0 -0 -0 -0 -0 -0 -0 -0 -0 -0 -0 -0 -0 0 0 0 0 0 0 0 -0 -0 0 0 0 0 0 0 0 0 0 0 0
0 0 0 -0 -0 -0 -0 -0 -0 -0 -0 -0 -0 -0 -0 -0 -0 -0 -0 -0 -0 -0 -0 -0 0 0 0 0 0 0 0 0 0 0 0 0 0 0 0 0 0 0 0
0 0 0 0 0 -0 0 0 0 -0 -0 -0 -0 -0 -0 -0 -0 0 -0 -0 -0 -0 -0 -0 0 0 0 0 0 0 0 0 0 0 0 0 0 0 0 0 0 0 0
0 0 0 0 0 0 0 0 0 -0 -0 -0 -0 -0 -0 -0 -0 0 0 -0 -0 -0 -0 -0 0 0 0 0 0 0 0 0 0 0 0 0 0 0 0 0 0 0 0
0 0 0 0 0 0 0 0 0 0 0 0 -0 -0 0 0 0 0 0 0 0 0 -0 0 0 0 0 0 0 0 0 0 0 0 0 0 0 0 0 0 0 0 0
0 0 0 0 0 0 0 0 0 0 0 0 0 -0 0 0 0 0 0 0 0 0 0 0 0 0 0 0 0 0 0 0 0 0 0 0 0 0 0 0 0 0 0
0 0 0 0 0 0 0 0 0 0 0 0 0 0 0 0 0 0 0 0 0 0 0 0 0 0 0 0 0 0 0 0 0 0 0 0 0 0 0 0 0 0 0
0 0 0 0 0 0 0 0 0 0 0 0 0 0 0 0 0 0 0 0 0 0 0 0 0 0 0 0 0 0 0 0 0 0 0 0 0 0 0 0 0 0 0
0 0 0 0 0 0 0 0 0 0 0 0 0 0 0 0 0 0 0 0 0 0 0 0 0 0 0 0 0 0 0 0 0 0 0 0 0 0 0 0 0 0 0
0 0 0 0 0 0 0 0 0 0 0 0 0 0 0 0 0 0 0 0 0 0 0 0 0 0 0 0 0 0 0 0 0 0 0 0 0 0 0 0 0 0 0
0 0 0 0 0 0 0 0 0 0 0 0 0 0 0 0 0 0 0 0 0 0 0 0 0 0 0 0 0 0 0 0 0 0 0 0 0 0 0 0 0 0 0
0 0 0 0 0 0 0 0 0 0 0 0 0 0 0 0 0 0 0 0 0 0 0 0 0 0 0 0 0 0 0 0 0 0 0 0 0 0 0 0 0 0 0
0 0 0 0 0 0 0 0 0 0 0 0 0 0 0 0 0 0 0 0 0 0 0 0 0 0 0 0 0 0 0 0 0 0 0 0 0 0 0 0 0 0 0
0 0 0 0 0 0 0 0 0 0 0 0 0 0 0 0 0 0 0 0 0 0 0 0 0 0 0 0 0 0 0 0 0 0 0 0 0 0 0 0 0 0 0
0 0 0 0 0 0 0 0 0 0 0 0 0 0 0 0 0 0 0 0 0 0 0 0 0 0 0 0 0 0 0 0 0 0 0 0 0 0 0 0 0 0 0
0 0 0 0 0 0 0 0 0 0 0 0 0 0 0 0 0 0 0 0 0 0 0 0 0 0 0 0 0 0 0 0 0 0 0 0 0 0 0 0 0 0 0
0 0 0 0 0 0 0 0 0 0 0 0 0 0 0 0 0 0 0 0 0 0 0 0 0 0 0 0 0 0 0 0 0 0 0 0 0 0 0 0 0 0 0
0 0 0 0 0 0 0 0 0 0 0 0 0 0 0 0 0 0 0 0 0 0 0 0 0 0 0 0 0 0 0 0 0 0 0 0 0 0 0 0 0 0 0
0 0 0 0 0 0 0 0 0 0 0 0 0 0 0 0 0 0 0 0 0 0 0 0 0 0 0 0 0 0 0 0 0 0 0 0 0 0 0 0 0 0 0
0 0 0 0 0 0 0 0 0 0 0 0 0 0 0 0 0 0 0 0 0 0 0 0 0 0 0 0 0 0 0 0 0 0 0 0 0 0 0 0 0 0 0
0 0 0 0 0 0 0 0 0 0 0 0 0 0 0 0 0 0 0 0 0 0 0 0 0 0 0 0 0 0 0 0 0 0 0 0 0 0 0 0 0 0 0
Wind_Speed_500mb
19 26 28 28 25 16 11 13 15 15 17 21 22 23 31 40 34 27 25 23 25 34 37 36 38 35 40 40 41 43 45 48 47 43 41 40 40 38 43 44 48 47 43
24 27 26 25 22 16 13 13 13 14 14 18 24 25 34 36 31 24 21 24 31 35 34 35 37 38 40 41 42 45 49 53 50 41 38 40 41 40 40 37 38 39 40
24 31 26 22 17 15 14 13 12 12 12 17 26 27 32 34 30 25 19 18 29 32 33 34 36 36 38 41 42 43 47 50 47 35 30 41 41 39 38 37 39 38 38
23 30 29 25 20 16 14 12 11 11 13 19 24 27 31 33 27 29 21 16 30 29 32 32 33 34 37 38 39 37 38 39 28 21 23 37 38 37 34 36 35 36 35
22 23 30 27 23 17 15 14 13 13 13 17 22 25 25 33 26 19 24 21 27 26 28 29 30 32 33 34 33 31 29 31 29 25 33 35 36 36 36 33 34 34 33
29 29 26 27 24 19 16 14 13 14 15 18 18 19 21 27 26 18 25 16 21 23 25 25 27 28 29 29 29 28 35 39 35 35 27 31 33 28 27 27 30 30 30
38 28 27 29 25 21 18 15 12 12 14 12 8 13 17 23 26 20 25 18 14 20 21 23 23 23 24 24 25 26 34 35 22 15 27 28 29 24 26 27 28 28 27
36 29 33 32 26 22 19 17 14 11 11 10 10 11 16 18 25 23 22 23 15 18 19 20 19 19 20 20 21 23 26 25 18 16 19 22 22 22 23 24 25 26 22
32 28 39 33 29 26 23 20 15 14 13 11 11 13 14 16 21 23 19 20 20 14 18 16 16 15 16 16 17 19 20 17 22 9 17 14 14 14 17 20 22 22 20
32 29 27 36 31 31 30 26 22 17 19 18 11 17 16 15 16 23 22 18 18 18 15 13 12 11 10 12 13 14 15 16 17 7 11 12 13 12 12 15 16 19 17
31 36 28 34 34 32 31 31 28 25 25 25 22 21 19 17 16 17 21 20 20 18 16 14 11 10 8 7 8 8 5 11 8 3 7 8 9 10 13 14 14 16 13
39 38 37 31 37 38 35 35 34 31 29 29 28 24 23 19 18 20 22 22 23 23 20 17 14 11 9 6 4 4 2 4 4 6 4 6 7 8 10 11 11 10 9
38 39 43 45 39 43 42 38 37 38 36 35 32 28 29 24 26 26 24 24 25 25 23 21 17 14 11 5 7 8 7 6 6 12 6 7 8 8 7 8 9 8 4
41 39 45 49 48 43 44 45 39 41 38 38 34 32 34 35 36 34 31 29 29 27 27 26 23 21 17 18 17 15 13 11 9 17 13 11 11 10 10 8 8 8 4
45 44 45 51 54 53 48 49 44 45 43 40 38 37 38 41 39 34 36 32 33 31 31 28 27 26 22 21 20 19 18 16 18 18 21 16 15 14 14 12 11 9 5
56 53 49 53 55 60 55 51 50 52 48 44 44 42 42 43 42 39 39 37 37 35 33 31 30 29 26 26 24 22 22 21 20 21 24 22 18 17 17 15 15 12 8
61 59 57 58 56 63 63 57 58 57 54 51 51 47 45 46 45 44 43 44 41 39 37 36 35 33 32 29 27 27 25 26 24 23 24 26 22 19 19 18 19 16 12
54 61 64 66 63 66 67 65 65 61 60 58 54 54 50 48 50 50 49 49 46 45 43 43 40 40 37 34 31 30 29 29 27 26 26 23 26 26 24 21 21 20 18
51 57 64 69 73 71 71 69 69 67 67 65 61 61 59 54 55 55 54 52 49 51 50 47 45 44 41 37 35 31 31 32 30 29 28 27 27 32 27 24 23 24 24
50 53 62 66 76 76 76 75 74 74 75 72 68 68 63 62 60 61 59 57 55 56 57 52 50 48 45 39 35 36 37 39 36 37 33 33 33 33 34 33 28 27 28
54 60 63 67 74 81 81 85 86 86 83 82 78 72 72 69 67 67 66 63 63 63 61 56 53 53 52 45 37 36 42 39 42 44 40 42 39 37 31 36 33 30 30
58 63 72 76 75 84 86 88 92 89 87 82 80 78 80 78 75 73 74 72 71 70 66 64 61 59 57 51 53 45 32 39 43 50 40 44 46 44 38 35 39 31 33
58 67 70 76 83 83 88 87 89 83 87 90 91 92 89 88 86 83 80 77 78 78 75 72 68 67 66 61 60 50 21 30 23 35 42 38 40 45 40 39 41 37 36
59 59 69 72 74 87 89 92 97 100 101 94 93 92 89 89 93 92 88 85 84 84 85 82 76 74 71 71 65 67 60 36 22 18 35 37 38 41 40 35 39 39 40
38 47 64 70 78 82 92 96 98 101 100 97 97 94 90 89 93 98 98 96 93 91 89 91 86 83 81 79 78 75 69 69 53 43 38 44 47 48 47 44 44 44 46
40 43 51 65 77 85 91 97 102 104 102 101 102 102 98 93 90 91 95 100 101 97 94 96 96 90 88 88 85 83 82 78 77 78 73 75 71 64 57 55 53 53 52
Wind_Direction_500mb
178 161 146 141 136 125 108 96 94 89 103 113 109 104 102 108 96 93 97 114 110 93 92 95 100 95 90 88 90 83 78 75 70 72 78 81 79 79 75 71 68 68 63
178 166 153 150 141 131 121 110 98 92 104 113 118 118 107 102 101 105 89 93 100 97 97 96 95 92 91 90 90 84 77 68 59 53 68 73 71 72 73 74 74 75 71
180 166 161 155 147 129 124 116 104 96 112 121 114 113 116 108 110 100 86 91 99 99 99 97 94 94 93 91 89 86 82 77 75 57 55 68 66 65 70 66 65 66 70
182 168 166 159 151 134 128 124 116 109 122 123 116 119 122 113 113 116 103 98 100 99 102 100 99 97 94 92 91 91 94 98 115 111 75 74 70 69 63 62 61 60 59
177 164 168 163 158 147 138 131 116 107 123 126 122 118 122 123 119 135 111 104 108 107 106 104 102 97 96 95 92 89 86 78 80 81 71 70 69 60 61 58 55 57 53
147 190 171 170 165 157 146 130 121 118 115 124 125 129 130 137 124 131 117 119 111 114 112 105 102 101 100 99 94 88 80 62 53 73 70 72 69 57 53 54 57 58 57
163 191 186 177 173 166 154 144 134 129 132 133 131 139 140 145 133 135 128 134 127 121 115 108 107 105 104 101 97 92 95 97 86 56 80 79 65 52 56 59 60 54 59
167 191 184 179 179 177 169 159 152 162 165 158 155 155 151 152 146 144 149 147 145 132 124 119 115 111 109 105 101 96 93 97 108 55 84 83 66 57 56 66 55 56 59
180 200 183 185 185 188 182 178 171 177 183 191 190 170 167 162 159 158 161 168 151 154 135 129 122 118 116 113 104 100 100 96 96 110 62 81 68 54 57 62 52 49 41
195 190 196 186 193 193 192 192 189 190 196 215 221 193 184 179 181 179 178 180 171 167 156 153 135 127 125 119 113 111 108 93 81 26 61 60 58 49 49 52 40 35 33
208 185 207 192 198 200 208 203 203 201 207 220 230 216 198 196 199 195 193 191 189 181 180 178 162 151 143 133 129 127 121 108 132 305 42 41 32 22 32 35 27 29 22
209 199 191 210 202 197 203 211 210 214 216 223 232 221 203 209 211 206 206 204 201 194 194 196 188 181 178 164 159 166 205 146 195 292 348 353 1 8 17 11 11 17 12
221 212 205 208 221 208 210 210 216 219 221 224 227 217 203 197 228 223 216 215 212 207 206 209 208 202 203 204 223 223 243 222 258 284 292 305 316 327 338 348 349 355 343
224 229 219 214 218 224 213 217 219 228 227 228 229 216 207 207 223 229 227 225 222 219 217 217 218 219 220 214 230 233 244 238 236 269 285 286 289 293 296 305 305 316 263
231 228 228 222 215 226 227 223 221 223 233 230 227 227 218 219 228 223 228 226 226 224 225 225 226 228 232 233 240 241 246 246 253 253 276 281 278 277 276 276 278 288 239
239 235 229 227 224 224 230 225 222 222 230 227 230 230 227 227 229 227 227 230 230 231 227 231 232 238 238 240 245 247 250 254 259 262 270 277 273 267 266 263 262 264 237
237 243 237 232 225 225 231 226 226 223 228 230 229 232 231 228 229 231 230 233 234 233 233 231 231 236 241 244 247 249 250 255 261 265 265 273 273 267 262 258 255 253 241
245 241 240 239 232 227 228 228 228 228 228 233 230 231 233 228 228 232 233 234 235 235 236 235 234 238 241 245 250 251 255 256 259 264 267 271 280 280 268 255 251 244 235
246 243 241 238 239 233 228 228 230 231 231 232 231 231 232 232 229 232 235 237 235 237 239 238 238 241 243 243 246 251 256 260 260 261 260 274 268 273 275 258 252 244 241
237 240 245 244 239 238 232 228 229 230 232 233 233 233 234 232 231 232 233 236 236 237 239 237 238 240 243 245 244 248 247 254 259 262 255 261 267 272 267 264 257 251 247
242 235 238 242 243 239 234 227 228 229 230 234 234 234 235 234 232 232 235 235 236 238 241 241 241 240 240 235 234 243 253 256 257 263 260 255 263 265 264 261 260 254 248
250 246 238 239 242 243 239 237 235 235 237 240 240 237 233 235 235 234 235 236 236 238 240 239 238 239 241 235 230 236 248 259 255 267 267 254 257 262 261 256 258 250 245
263 251 250 247 240 242 245 241 235 235 240 239 239 239 235 235 238 238 238 237 238 239 242 242 240 239 240 240 235 230 215 232 248 258 255 253 253 254 261 251 250 247 244
257 263 256 252 247 244 243 240 238 237 237 243 243 243 240 236 239 241 243 241 240 240 243 245 243 242 242 239 238 238 238 240 219 243 241 246 251 249 252 248 246 245 243
267 262 256 251 249 248 244 245 244 242 243 246 247 248 246 241 238 239 242 244 242 241 244 246 245 242 243 243 243 244 244 240 231 232 254 249 250 253 259 253 248 247 247
273 272 258 252 249 247 244 246 245 246 246 243 243 245 248 247 243 240 241 243 244 244 244 246 247 246 246 247 245 246 247 245 241 236 242 252 258 263 264 264 254 252 254
Wind_Speed_850mb
19 26 28 28 25 16 11 13 15 15 17 21 22 23 31 40 34 27 25 23 25 34 37 36 38 35 40 40 41 43 45 48 47 43 41 40 40 38 43 44 48 47 43
24 27 26 25 22 16 13 13 13 14 14 18 24 25 34 36 31 24 21 24 31 35 34 35 37 38 40 41 42 45 49 53 50 41 38 40 41 40 40 37 38 39 40
24 31 26 22 17 15 14 13 12 12 12 17 26 27 32 34 30 25 19 18 29 32 33 34 36 36 38 41 42 43 47 50 47 35 30 41 41 39 38 37 39 38 38
23 30 29 25 20 16 14 12 11 11 13 19 24 27 31 33 27 29 21 16 30 29 32 32 33 34 37 38 39 37 38 39 28 21 23 37 38 37 34 36 35 36 35
22 23 30 27 23 17 15 14 13 13 13 17 22 25 25 33 26 19 24 21 27 26 28 29 30 32 33 34 33 31 29 31 29 25 33 35 36 36 36 33 34 34 33
29 29 26 27 24 19 16 14 13 14 15 18 18 19 21 27 26 18 25 16 21 23 25 25 27 28 29 29 29 28 35 39 35 35 27 31 33 28 27 27 30 30 30
38 28 27 29 25 21 18 15 12 12 14 12 8 13 17 23 26 20 25 18 14 20 21 23 23 23 24 24 25 26 34 35 22 15 27 28 29 24 26 27 28 28 27
36 29 33 32 26 22 19 17 14 11 11 10 10 11 16 18 25 23 22 23 15 18 19 20 19 19 20 20 21 23 26 25 18 16 19 22 22 22 23 24 25 26 22
32 28 39 33 29 26 23 20 15 14 13 11 11 13 14 16 21 23 19 20 20 14 18 16 16 15 16 16 17 19 20 17 22 9 17 14 14 14 17 20 22 22 20
32 29 27 36 31 31 30 26 22 17 19 18 11 17 16 15 16 23 22 18 18 18 15 13 12 11 10 12 13 14 15 16 17 7 11 12 13 12 12 15 16 19 17
31 36 28 34 34 32 31 31 28 25 25 25 22 21 19 17 16 17 21 20 20 18 16 14 11 10 8 7 8 8 5 11 8 3 7 8 9 10 13 14 14 16 13
39 38 37 31 37 38 35 35 34 31 29 29 28 24 23 19 18 20 22 22 23 23 20 17 14 11 9 6 4 4 2 4 4 6 4 6 7 8 10 11 11 10 9
38 39 43 45 39 43 42 38 37 38 36 35 32 28 29 24 26 26 24 24 25 25 23 21 17 14 11 5 7 8 7 6 6 12 6 7 8 8 7 8 9 8 4
41 39 45 49 48 43 44 45 39 41 38 38 34 32 34 35 36 34 31 29 29 27 27 26 23 21 17 18 17 15 13 11 9 17 13 11 11 10 10 8 8 8 4
45 44 45 51 54 53 48 49 44 45 43 40 38 37 38 41 39 34 36 32 33 31 31 28 27 26 22 21 20 19 18 16 18 18 21 16 15 14 14 12 11 9 5
56 53 49 53 55 60 55 51 50 52 48 44 44 42 42 43 42 39 39 37 37 35 33 31 30 29 26 26 24 22 22 21 20 21 24 22 18 17 17 15 15 12 8
61 59 57 58 56 63 63 57 58 57 54 51 51 47 45 46 45 44 43 44 41 39 37 36 35 33 32 29 27 27 25 26 24 23 24 26 22 19 19 18 19 16 12
54 61 64 66 63 66 67 65 65 61 60 58 54 54 50 48 50 50 49 49 46 45 43 43 40 40 37 34 31 30 29 29 27 26 26 23 26 26 24 21 21 20 18
51 57 64 69 73 71 71 69 69 67 67 65 61 61 59 54 55 55 54 52 49 51 50 47 45 44 41 37 35 31 31 32 30 29 28 27 27 32 27 24 23 24 24
50 53 62 66 76 76 76 75 74 74 75 72 68 68 63 62 60 61 59 57 55 56 57 52 50 48 45 39 35 36 37 39 36 37 33 33 33 33 34 33 28 27 28
54 60 63 67 74 81 81 85 86 86 83 82 78 72 72 69 67 67 66 63 63 63 61 56 53 53 52 45 37 36 42 39 42 44 40 42 39 37 31 36 33 30 30
58 63 72 76 75 84 86 88 92 89 87 82 80 78 80 78 75 73 74 72 71 70 66 64 61 59 57 51 53 45 32 39 43 50 40 44 46 44 38 35 39 31 33
58 67 70 76 83 83 88 87 89 83 87 90 91 92 89 88 86 83 80 77 78 78 75 72 68 67 66 61 60 50 21 30 23 35 42 38 40 45 40 39 41 37 36
59 59 69 72 74 87 89 92 97 100 101 94 93 92 89 89 93 92 88 85 84 84 85 82 76 74 71 71 65 67 60 36 22 18 35 37 38 41 40 35 39 39 40
38 47 64 70 78 82 92 96 98 101 100 97 97 94 90 89 93 98 98 96 93 91 89 91 86 83 81 79 78 75 69 69 53 43 38 44 47 48 47 44 44 44 46
40 43 51 65 77 85 91 97 102 104 102 101 102 102 98 93 90 91 95 100 101 97 94 96 96 90 88 88 85 83 82 78 77 78 73 75 71 64 57 55 53 53 52
Wind_Direction_850mb
178 161 146 141 136 125 108 96 94 89 103 113 109 104 102 108 96 93 97 114 110 93 92 95 100 95 90 88 90 83 78 75 70 72 78 81 79 79 75 71 68 68 63
178 166 153 150 141 131 121 110 98 92 104 113 118 118 107 102 101 105 89 93 100 97 97 96 95 92 91 90 90 84 77 68 59 53 68 73 71 72 73 74 74 75 71
180 166 161 155 147 129 124 116 104 96 112 121 114 113 116 108 110 100 86 91 99 99 99 97 94 94 93 91 89 86 82 77 75 57 55 68 66 65 70 66 65 66 70
182 168 166 159 151 134 128 124 116 109 122 123 116 119 122 113 113 116 103 98 100 99 102 100 99 97 94 92 91 91 94 98 115 111 75 74 70 69 63 62 61 60 59
177 164 168 163 158 147 138 131 116 107 123 126 122 118 122 123 119 135 111 104 108 107 106 104 102 97 96 95 92 89 86 78 80 81 71 70 69 60 61 58 55 57 53
147 190 171 170 165 157 146 130 121 118 115 124 125 129 130 137 124 131 117 119 111 114 112 105 102 101 100 99 94 88 80 62 53 73 70 72 69 57 53 54 57 58 57
163 191 186 177 173 166 154 144 134 129 132 133 131 139 140 145 133 135 128 134 127 121 115 108 107 105 104 101 97 92 95 97 86 56 80 79 65 52 56 59 60 54 59
167 191 184 179 179 177 169 159 152 162 165 158 155 155 151 152 146 144 149 147 145 132 124 119 115 111 109 105 101 96 93 97 108 55 84 83 66 57 56 66 55 56 59
180 200 183 185 185 188 182 178 171 177 183 191 190 170 167 162 159 158 161 168 151 154 135 129 122 118 116 113 104 100 100 96 96 110 62 81 68 54 57 62 52 49 41
195 190 196 186 193 193 192 192 189 190 196 215 221 193 184 179 181 179 178 180 171 167 156 153 135 127 125 119 113 111 108 93 81 26 61 60 58 49 49 52 40 35 33
208 185 207 192 198 200 208 203 203 201 207 220 230 216 198 196 199 195 193 191 189 181 180 178 162 151 143 133 129 127 121 108 132 305 42 41 32 22 32 35 27 29 22
209 199 191 210 202 197 203 211 210 214 216 223 232 221 203 209 211 206 206 204 201 194 194 196 188 181 178 164 159 166 205 146 195 292 348 353 1 8 17 11 11 17 12
221 212 205 208 221 208 210 210 216 219 221 224 227 217 203 197 228 223 216 215 212 207 206 209 208 202 203 204 223 223 243 222 258 284 292 305 316 327 338 348 349 355 343
224 229 219 214 218 224 213 217 219 228 227 228 229 216 207 207 223 229 227 225 222 219 217 217 218 219 220 214 230 233 244 238 236 269 285 286 289 293 296 305 305 316 263
231 228 228 222 215 226 227 223 221 223 233 230 227 227 218 219 228 223 228 226 226 224 225 225 226 228 232 233 240 241 246 246 253 253 276 281 278 277 276 276 278 288 239
239 235 229 227 224 224 230 225 222 222 230 227 230 230 227 227 229 227 227 230 230 231 227 231 232 238 238 240 245 247 250 254 259 262 270 277 273 267 266 263 262 264 237
237 243 237 232 225 225 231 226 226 223 228 230 229 232 231 228 229 231 230 233 234 233 233 231 231 236 241 244 247 249 250 255 261 265 265 273 273 267 262 258 255 253 241
245 241 240 239 232 227 228 228 228 228 228 233 230 231 233 228 228 232 233 234 235 235 236 235 234 238 241 245 250 251 255 256 259 264 267 271 280 280 268 255 251 244 235
246 243 241 238 239 233 228 228 230 231 231 232 231 231 232 232 229 232 235 237 235 237 239 238 238 241 243 243 246 251 256 260 260 261 260 274 268 273 275 258 252 244 241
237 240 245 244 239 238 232 228 229 230 232 233 233 233 234 232 231 232 233 236 236 237 239 237 238 240 243 245 244 248 247 254 259 262 255 261 267 272 267 264 257 251 247
242 235 238 242 243 239 234 227 228 229 230 234 234 234 235 234 232 232 235 235 236 238 241 241 241 240 240 235 234 243 253 256 257 263 260 255 263 265 264 261 260 254 248
250 246 238 239 242 243 239 237 235 235 237 240 240 237 233 235 235 234 235 236 236 238 240 239 238 239 241 235 230 236 248 259 255 267 267 254 257 262 261 256 258 250 245
263 251 250 247 240 242 245 241 235 235 240 239 239 239 235 235 238 238 238 237 238 239 242 242 240 239 240 240 235 230 215 232 248 258 255 253 253 254 261 251 250 247 244
257 263 256 252 247 244 243 240 238 237 237 243 243 243 240 236 239 241 243 241 240 240 243 245 243 242 242 239 238 238 238 240 219 243 241 246 251 249 252 248 246 245 243
267 262 256 251 249 248 244 245 244 242 243 246 247 248 246 241 238 239 242 244 242 241 244 246 245 242 243 243 243 244 244 240 231 232 254 249 250 253 259 253 248 247 247
273 272 258 252 249 247 244 246 245 246 246 243 243 245 248 247 243 240 241 243 244 244 244 246 247 246 246 247 245 246 247 245 241 236 242 252 258 263 264 264 254 252 254